Regional Weather Roundup
Issued by NWS Charleston, SC

Current Version | Previous Version | Graphics & Text | Print | Product List | Glossary On
Versions: 1 2 3 4 5 6 7 8 9 10 11 12 13 14 15 16 17 18 19 20 21 22 23 24 25 26 27 28 29 30 31 32 33 34 35 36 37 38 39 40 41 42 43 44 45 46 47 48 49 50
000
ASUS42 KCHS 270512
RWRCHS

REGIONAL WEATHER ROUNDUP
NATIONAL WEATHER SERVICE CHARLESTON SC
100 AM EDT MON MAR 27 2017

NOTE: "FAIR" INDICATES FEW OR NO CLOUDS BELOW 12,000 FEET WITH NO
SIGNIFICANT WEATHER AND/OR OBSTRUCTIONS TO VISIBILITY.

NOT ALL STATIONS ARE QUALITY CONTROLLED. USE DATA WITH CAUTION...
ESPECIALLY DEWPOINT OBSERVATIONS.

SCZ027-030-031-034>040-042>050-270600-
...SOUTHEAST SOUTH CAROLINA...

CITY           SKY/WX    TMP DP  RH WIND       PRES   REMARKS
N CHARLESTON   PTCLDY    62  55  77 S7        30.15F
WATERFRONT PRK   N/A     66  60  81 S7        30.14F
JOHNS ISLAND   FAIR      66  59  77 SE6       30.15F
PINOPOLIS        N/A     63  59  88 CALM      30.06F
MONCKS CORNER  FAIR      59  55  88 CALM      30.15S
SUMMERVILLE    FAIR      61  55  82 CALM      30.16S
BEAUFORT MCAS  CLEAR     64  63  96 CALM      30.15S
BEAUFORT ARPT  FAIR      63  61  94 CALM      30.14F
HILTON HEAD IS CLEAR     64  63  94 CALM      30.15S
WALTERBORO     CLEAR     59  59 100 S3        30.15F
ALLENDALE      FAIR      63  59  88 SE5       30.12F

...SOUTHERN MIDLANDS AND PEE DEE...

CITY           SKY/WX    TMP DP  RH WIND       PRES   REMARKS
GEORGETOWN     FAIR      54  54 100 CALM      30.17F
KINGSTREE      FAIR      59  54  82 CALM      30.15F
ORANGEBURG     CLEAR     61  58  90 SE5       30.14F
BARNWELL       FAIR      64  61  88 S6        30.13S
AIKEN          FAIR      61  55  82 SE7       30.15F
MANNING        MOCLDY    59  55  88 CALM      30.15S
COLUMBIA       CLEAR     66  58  75 S10       30.11F
SUMTER         CLEAR     63  56  78 S5        30.11F
FLORENCE       MOCLDY    61  59  93 SE5       30.15F
MYRTLE BEACH   PTCLDY    64  57  77 S12       30.17F
N MYRTLE BEACH CLEAR     64  58  80 S6        30.16F

$$

GAZ063-065-086>088-099>101-113>116-118-119-134>141-150-270600-
...SOUTHEAST GEORGIA...

CITY           SKY/WX    TMP DP  RH WIND       PRES   REMARKS
SAVANNAH ARPT  PTCLDY    64  58  80 CALM      30.14F
HUNTER AAF     CLEAR     64  63  98 CALM      30.12S
FORT STEWART   CLEAR     58  56  93 CALM      30.11F
STATESBORO     CLEAR     63  63 100 CALM      30.13S
SYLVANIA       CLEAR    N/A N/A N/A CALM      30.14S
CLAXTON        FAIR     N/A N/A N/A CALM      30.13S

...CSRA...CENTRAL AND FAR SOUTHEAST GEORGIA...

CITY           SKY/WX    TMP DP  RH WIND       PRES   REMARKS
THOMSON        CLEAR     65  57  75 SW9       30.15S
AUGUSTA-BUSH   PTCLDY    66  59  78 SE8       30.11S
AUGUSTA-DANIEL CLEAR     66  56  70 SE8       30.12S
SWAINSBORO     FAIR      64  59  82 S6        30.13S
VIDALIA        CLEAR     64  61  88 S7        30.12F
EASTMAN        MOCLDY    69  51  52 S7        30.12F
HAZLEHURST     FAIR      65  62  87 SE5       30.11S
ALMA           MOCLDY    65  60  84 SE6       30.12F
WAYCROSS       CLEAR     67  64  90 S3        30.13R
JESUP          FAIR      61  55  82 CALM      30.13S
BAXLEY         MOCLDY    64  64 100 S3        30.12F
BRUNSWICK      CLEAR     66  64  94 SE3       30.13F
SAINT SIMONS   CLEAR     66  62  87 SE7       30.12F

$$

SCZ027-028-034-036>038-045-046-048>050-GAZ119-141-270600-
...LAKE AND SUPPLEMENTAL COASTAL OBSERVATIONS...

STATION/POSITION TIME  TEMP    WIND        PRES    WAVE   SWELL
                       AIR SEA DIR/SP/G            HT/PER HT/PER/DIR
                 (UTC) (F)     (DEG/KT/KT) (MB)    (FT/S) (FT/S/D)
WINYAH BAY       0345   63        CALM     1022.0
LAKE MURRAY      0420   65     160/  9/ 15 1019.3
ACE BASIN NERRS  0345   62        CALM     1021.0
FORT PULASKI     0448   64 63  140/  4/  6 1020.9F
SAPELO ISLAND    0400   66     130/  6     1020.0

$$

ANZ835-935-AMZ111-154-330-350-352-354-370-450-454-472-270600-
...C-MAN AND BUOY OBSERVATIONS...

STATION/POSITION TIME  TEMP    WIND        PRES    WAVE   SWELL
                       AIR SEA DIR/SP/G            HT/PER HT/PER/DIR
                 (UTC) (F)     (DEG/KT/KT) (MB)    (FT/S) (FT/S/D)
BUOY 41004       0350   72 73  140/ 14/ 17 1021.1    5/10   3/140/10
BUOY 41008       0350   64 63  120/  6/  6 1020.6    3/ 9   3/110/ 9
FOLLY BEACH CMAN 0400   65     160/  7/  7 1022.0F
CAPERS NEARSHORE 0408   63     150/  4/  6 1021.5F
FRIPP NEARSHORE  0408   63 62  150/  4/  6 1020.7F


STATION/POSITION TIME  TEMP    WIND        PRES    WAVE   SWELL
                       AIR SEA DIR/SP/G            HT/PER HT/PER/DIR
                 (UTC) (F)     (DEG/KT/KT) (MB)    (FT/S) (FT/S/D)
5E ST. MARYS GA  0430      65                N/A     3/11   2/120/11
FRYING PAN BUOY  0450   71 76  150/ 12/ 16 1021.8F   4/ 9   3/140/ 9
BUOY 41025       0450   69 76  150/ 14/ 17 1022.8F   3/ 9   2/150/ 9
CAPE LOOKOUT NC  0400   66     150/ 10/ 10 1022.4F
BUOY 41002       0450   68 72   90/ 12/ 16 1022.2F   5/ 7   3/100/ 7
BUOY 41010       NOT AVBL
ST AUGUSTINE FL  0500   68 69  140/  7/  8 1020.8F


$$




USA.gov is the U.S. government's official web portal to all federal, state and local government web resources and services.